Flag for United Kingdom Weather past 2 weeks in Gloucester, England, United Kingdom

Now
66 °F

Passing clouds.


Feels Like: 66 °F
Forecast: 42 / 65 °F
Wind: 2 mph from Northwest

Location: Staverton Private

Current Time: Sep 22, 2014 at 3:18:40 PM

Latest Report: Sep 22, 2014 at 2:50 PM


Visibility: N/A

Pressure: 30.27 "Hg

Humidity: 49%

Dew point: 46 °F

Location of GloucesterLocation

Historic Weather in Gloucester — Graph

°F

Gloucester temperature yesterday

Maximum temperature yesterday: 64 °F (at 1:50 PM)
Minimum temperature yesterday: 52 °F (at 8:20 AM)
Average temperature yesterday: 61 °F

Past Weeks' High & Low Weather Summary

 TemperatureHumidityPressure
High75 °F (Sep 18, 3:20 PM)100% (Sep 9, 7:20 AM)30.36 "Hg (Sep 9, 7:20 AM)
Low41 °F (Sep 22, 6:50 AM)43% (Sep 8, 5:50 PM)29.77 "Hg (Sep 18, 4:20 PM)
Average64 °F73%30.09 "Hg
* Reported Sep 7 2:20 PM — Sep 22 2:20 PM, Gloucester, Weather by CustomWeather, © 2014

Note: Actual official high and low records may vary slightly from our data, if they occured in-between our weather recording intervals... More about our weather records

Advertising

Gloucester weather history for previous 24 hours

 ConditionsComfort  
Time TempWeatherWind HumidityBarometerVisibility
2:20 PM
Sep 22
64 °FPassing clouds.3 mph60%30.27 "HgN/A
1:50 PM64 °FPassing clouds.3 mph56%30.30 "HgN/A
1:20 PM64 °FPassing clouds.No wind60%30.30 "HgN/A
12:50 PM63 °FClear.No wind64%30.30 "Hg6 mi
12:20 PM61 °FClear.2 mph68%30.33 "Hg6 mi
11:50 AM59 °FClear.3 mph72%30.33 "Hg6 mi
11:20 AM59 °FClear.3 mph72%30.33 "Hg5 mi
10:50 AM57 °FClear.2 mph77%30.33 "Hg5 mi
10:20 AM54 °FClear.No wind88%30.33 "Hg5 mi
9:50 AM52 °FPassing clouds.No wind88%30.33 "Hg5 mi
8:50 AM46 °FPassing clouds.No wind100%30.33 "Hg5 mi
8:20 AM45 °FClear.No wind100%30.33 "Hg5 mi
7:50 AM43 °FClear.No wind100%30.33 "Hg5 mi
7:20 AM41 °FClear.No wind100%30.33 "Hg4 mi
6:50 AM41 °FClear.No wind100%30.33 "Hg4 mi
6:50 PM
Sep 21
63 °FPassing clouds.2 mph59%30.30 "HgN/A
5:50 PM63 °FPassing clouds.3 mph64%30.27 "HgN/A
5:20 PM64 °FScattered clouds.6 mph52%30.27 "HgN/A
4:50 PMN/AScattered clouds.9 mphN/A30.30 "HgN/A
4:20 PM64 °FScattered clouds.5 mph56%30.30 "HgN/A
3:50 PM64 °FScattered clouds.9 mph56%30.30 "HgN/A
3:20 PM64 °FScattered clouds.3 mph56%30.27 "HgN/A
Weather by CustomWeather, © 2014

See weather overviewHow to use our weather pages